Terminal Aerodrome Forecast
Issued by NWS

Home | Current Version | Previous Version | Text Only | Print | Product List | Glossary On
Versions: 1 2 3 4 5 6 7 8 9 10 11 12 13 14 15 16 17 18 19 20 21 22 23 24 25 26 27 28 29 30 31 32
365
FTAK31 PANC 051339 AAA
TAFADU
TAF AMD
PADU 051339Z 0514/0612 36024G35KT P6SM -RA OVC014
     FM051600 33024G35KT P6SM -RA BKN014 BKN025
     FM060700 31024G33KT P6SM VCSH BKN035=

USA.gov is the U.S. government's official web portal to all federal, state and local government web resources and services.